Weather History for KRNM - December, 2012

Change the Weather History Date:

Tuesday, December 18, 2012

  Actual Average Record
Temperature  
Mean Temperature 53 °F 49 °F  
Max Temperature 55 °F 64 °F 80 °F (1979)
Min Temperature 50 °F 34 °F 26 °F (2006)
Degree Days  
Heating Degree Days 12 16  
Month to date heating degree days 210 275  
Since 1 July heating degree days 530 686  
Cooling Degree Days 0 0  
Month to date cooling degree days 0 0  
Year to date cooling degree days 1035 850  
Moisture  
Dew Point 48 °F    
Average Humidity 93    
Maximum Humidity 96    
Minimum Humidity 89    
Precipitation  
Precipitation 0.21 in 0.07 in 1.05 in (1978)
Month to date precipitation 1.68 0.99  
Year to date precipitation 10.12 14.80  
Since 1 July precipitation 3.20 3.47  
Snow  
Snow 0.00 in - - ()
Month to date snowfall 0.0  
Year to date snowfall 0.0  
Since 1 July snowfall 0.0  
Snow Depth 0.00 in    
Sea Level Pressure  
Sea Level Pressure 29.89 in    
Wind  
Wind Speed 3 mph (WSW)    
Max Wind Speed 22 mph    
Max Gust Speed 25 mph    
Visibility 7 miles    
Events Rain    
T = Trace of Precipitation, MM = Missing Value Source: NWS Daily Summary

Daily Weather History Graph

Daily Weather History Graph

Search for Another Location

Airport or City:

Trip Planner

Search our weather history database for the weather conditions in past years. The results will help you decide how hot, cold, wet, or windy it might be!

Date:

Astronomy

Dec. 18, 2012 Rise Set
Actual Time 6:45 AM PST 4:43 PM PST
Civil Twilight 6:18 AM PST 5:11 PM PST
Nautical Twilight 5:47 AM PST 5:42 PM PST
Astronomical Twilight 5:16 AM PST 6:12 PM PST
Moon 10:44 AM PST (12/18) 10:55 PM PST (12/18)
Length of Visible Light 10h 53m
Length of Day
9h 58m
Waxing Crescent, 36% of the Moon is Illuminated
Dec 18
Waxing Crescent
Dec 19
First Quarter
Dec 28
Full
Jan 4
Last Quarter
Jan 11
New

Hourly Weather History & Observations

Time (PST) Temp. Windchill Dew Point Humidity Pressure Visibility Wind Dir Wind Speed Gust Speed Precip Events Conditions
12:53 AM 52.0 °F - 48.9 °F 89% 29.98 in 10.0 mi Calm Calm - N/A   Overcast
1:53 AM 52.0 °F - 50.0 °F 93% 29.99 in 10.0 mi Calm Calm - N/A   Overcast
2:53 AM 52.0 °F - 50.0 °F 93% 29.95 in 10.0 mi Calm Calm - N/A   Overcast
3:24 AM 51.8 °F - 50.0 °F 94% 29.95 in 9.0 mi Calm Calm - N/A   Overcast
3:53 AM 52.0 °F - 50.0 °F 93% 29.92 in 9.0 mi Calm Calm - N/A   Overcast
4:42 AM 51.8 °F - 50.0 °F 94% 29.93 in 3.0 mi Calm Calm - 0.01 in Rain Light Rain
4:53 AM 51.1 °F - 50.0 °F 96% 29.92 in 7.0 mi Calm Calm - 0.01 in   Overcast
5:53 AM 51.1 °F - 50.0 °F 96% 29.91 in 10.0 mi Calm Calm - N/A   Overcast
6:53 AM 51.1 °F - 48.9 °F 92% 29.90 in 6.0 mi Calm Calm - N/A   Overcast
7:53 AM 52.0 °F - 50.0 °F 93% 29.90 in 10.0 mi South 3.5 mph - N/A   Overcast
8:04 AM 51.8 °F - 50.0 °F 94% 29.92 in 10.0 mi SSE 3.5 mph - N/A   Overcast
8:35 AM 53.6 °F - 50.0 °F 88% 29.91 in 10.0 mi SSE 4.6 mph - N/A   Overcast
8:53 AM 53.1 °F - 50.0 °F 89% 29.89 in 10.0 mi South 5.8 mph - N/A   Overcast
9:48 AM 51.8 °F - 51.8 °F 100% 29.92 in 2.0 mi SSW 6.9 mph - 0.00 in Rain Light Rain
9:53 AM 52.0 °F - 51.1 °F 97% 29.90 in 2.0 mi South 8.1 mph - 0.00 in Rain Light Rain
9:57 AM 53.6 °F - 51.8 °F 94% 29.91 in 3.0 mi South 6.9 mph - 0.00 in Rain Light Rain
10:24 AM 53.6 °F - 51.8 °F 94% 29.90 in 7.0 mi South 9.2 mph - 0.00 in   Overcast
10:53 AM 53.1 °F - 51.1 °F 93% 29.88 in 2.0 mi South 9.2 mph - 0.01 in Rain Light Rain
11:07 AM 53.6 °F - 51.8 °F 94% 29.89 in 2.0 mi SW 10.4 mph - 0.01 in Rain Rain
11:53 AM 53.1 °F - 52.0 °F 96% 29.86 in 2.0 mi West 10.4 mph - 0.08 in Rain Light Rain
11:56 AM 53.6 °F - 51.8 °F 94% 29.87 in 2.5 mi West 10.4 mph - 0.00 in Rain Rain
12:01 PM 53.6 °F - 51.8 °F 94% 29.86 in 1.8 mi West 12.7 mph - 0.02 in Rain Rain
12:08 PM 53.6 °F - 51.8 °F 94% 29.86 in 1.8 mi WSW 17.3 mph 21.9 mph 0.03 in Rain Light Rain
12:12 PM 53.6 °F - 51.8 °F 94% 29.86 in 3.0 mi WSW 12.7 mph 21.9 mph 0.03 in Rain Light Rain
12:53 PM 54.0 °F - 52.0 °F 93% 29.83 in 10.0 mi West 11.5 mph - 0.03 in   Overcast
1:04 PM 55.4 °F - 53.6 °F 94% 29.84 in 10.0 mi West 13.8 mph - 0.00 in Rain Light Rain
1:17 PM 53.6 °F - 51.8 °F 94% 29.84 in 10.0 mi WSW 13.8 mph - 0.00 in   Overcast
1:31 PM 53.6 °F - 51.8 °F 94% 29.83 in 7.0 mi WSW 13.8 mph - 0.00 in Rain Light Rain
1:41 PM 53.6 °F - 51.8 °F 94% 29.83 in 10.0 mi West 16.1 mph 23.0 mph 0.00 in   Overcast
1:53 PM 53.1 °F - 51.1 °F 93% 29.81 in 2.0 mi WSW 19.6 mph 23.0 mph 0.01 in Rain Rain
2:53 PM 51.1 °F - 48.9 °F 92% 29.84 in 2.0 mi West 16.1 mph 24.2 mph 0.05 in Rain Rain
3:09 PM 51.8 °F - 48.2 °F 88% 29.85 in 4.0 mi West 16.1 mph - 0.01 in Rain Rain
3:53 PM 50.0 °F - 46.9 °F 89% 29.85 in 10.0 mi West 19.6 mph 23.0 mph 0.02 in   Overcast
4:53 PM 48.9 °F - 44.1 °F 83% 29.85 in 10.0 mi WSW 10.4 mph - N/A   Overcast
5:53 PM 46.9 °F - 43.0 °F 86% 29.86 in 10.0 mi WSW 5.8 mph - N/A   Mostly Cloudy
6:53 PM 46.0 °F 41.0 °F 42.1 °F 86% 29.87 in 10.0 mi West 10.4 mph - N/A   Scattered Clouds
7:53 PM 48.0 °F - 43.0 °F 83% 29.88 in 10.0 mi West 12.7 mph - N/A   Mostly Cloudy
8:53 PM 45.0 °F 39.3 °F 35.1 °F 68% 29.90 in 10.0 mi West 11.5 mph - N/A   Clear
9:53 PM 41.0 °F 36.4 °F 27.0 °F 57% 29.94 in 10.0 mi WNW 6.9 mph - N/A   Clear
10:53 PM 39.9 °F 33.9 °F 26.1 °F 58% 29.96 in 10.0 mi WNW 9.2 mph - N/A   Clear
11:53 PM 39.0 °F 34.0 °F 27.0 °F 62% 29.98 in 10.0 mi NW 6.9 mph - N/A   Clear